^^
Saratoga-Weather Station Historical Data
Daily Summary for July 24, 2020 Units:  English    Metric   Both
Daily Weekly Monthly Yearly Custom
  High: Low: Average:
Temperature: 52 °F 41.7 °F 47.5 °F
Dew Point: 49.6 °F 40.5 °F 44.6 °F
Humidity: 98% 81% 90%
Wind Speed: 12.1mph 0mph 3mph
Wind Gust: 22mph - -
Wind- - WSW
Pressure: 30.3 in 29.8 in -
Precipitation: 0.09 in    
Historical Graphs
 
 
Tabular Data for July 24, 2020
Time Temperature Dew Point Pressure Wind Wind Speed Wind Gust Humidity Rainfall Rate (Hourly) solar
00:03 45.5 °F 42.8 °F 30.3 in West 4 mph 13 mph 90% 0.01 in 0 W/m2
00:08 45.1 °F 42.6 °F 30.3 in NW 2 mph 8 mph 91% 0.01 in 0 W/m2
00:13 44.8 °F 42.3 °F 30.3 in NW 2.9 mph 13 mph 91% 0.01 in 0 W/m2
00:18 44.8 °F 42.3 °F 30.3 in West 2.9 mph 5 mph 91% 0.01 in 0 W/m2
00:23 44.8 °F 42.3 °F 30.3 in WNW 2 mph 10 mph 91% 0.01 in 0 W/m2
00:28 44.4 °F 42.3 °F 30.3 in WSW 2 mph 3 mph 92% 0.01 in 0 W/m2
00:33 44.4 °F 42.3 °F 30.3 in West 0.9 mph 4 mph 92% 0.01 in 0 W/m2
00:38 44.2 °F 42.1 °F 30.3 in West 2 mph 2 mph 92% 0.01 in 0 W/m2
00:43 44.2 °F 42.1 °F 30.3 in West 0.9 mph 4 mph 92% 0.01 in 0 W/m2
00:48 44.2 °F 41.7 °F 30.3 in West 2 mph 4 mph 91% 0.01 in 0 W/m2
00:53 44.2 °F 41.5 °F 30.3 in West 0.9 mph 2 mph 90% 0.01 in 0 W/m2
00:58 44.4 °F 41.7 °F 30.3 in West 2.9 mph 3 mph 90% 0.01 in 0 W/m2
01:03 44.6 °F 41.5 °F 30.3 in West 2 mph 6 mph 89% 0 in 0 W/m2
01:08 45 °F 41.5 °F 30.3 in WNW 4 mph 5 mph 88% 0 in 0 W/m2
01:13 45.1 °F 41.2 °F 30.3 in WNW 2.9 mph 8 mph 86% 0 in 0 W/m2
01:18 45.7 °F 41.2 °F 30.3 in WNW 2.9 mph 8 mph 84% 0 in 0 W/m2
01:23 45.7 °F 41.2 °F 30.3 in WNW 6.9 mph 7 mph 84% 0 in 0 W/m2
01:28 45.9 °F 41 °F 30.3 in WSW 2 mph 4 mph 83% 0 in 0 W/m2
01:33 45.9 °F 41.4 °F 30.3 in West 2 mph 3 mph 84% 0 in 0 W/m2
01:38 45.7 °F 41.4 °F 30.3 in West 2 mph 4 mph 85% 0 in 0 W/m2
01:43 45.7 °F 41.4 °F 30.3 in WSW 0.9 mph 3 mph 85% 0 in 0 W/m2
01:48 45.7 °F 41.7 °F 30.3 in Calm     86% 0 in 0 W/m2
01:53 45.5 °F 41.9 °F 30.3 in Calm   1 mph 87% 0 in 0 W/m2
01:58 45.3 °F 41.9 °F 30.3 in Calm     88% 0 in 0 W/m2
02:03 45.3 °F 42.3 °F 30.3 in Calm     89% 0 in 0 W/m2
02:08 45.1 °F 42.1 °F 30.3 in Calm     89% 0 in 0 W/m2
02:13 45.1 °F 42.4 °F 30.3 in WNW 0.9 mph 3 mph 90% 0 in 0 W/m2
02:18 45.1 °F 42.6 °F 30.3 in West 0.9 mph 3 mph 91% 0 in 0 W/m2
02:23 45.3 °F 42.8 °F 30.3 in West 0.9 mph 3 mph 91% 0 in 0 W/m2
02:28 45.3 °F 42.8 °F 30.3 in WSW 0.9 mph 2 mph 91% 0 in 0 W/m2
02:33 45.5 °F 43.3 °F 30.3 in WNW 2 mph 6 mph 92% 0 in 0 W/m2
02:38 45.5 °F 43.3 °F 30.3 in West 2 mph 3 mph 92% 0 in 0 W/m2
02:43 45.5 °F 43.3 °F 30.3 in West 2.9 mph 3 mph 92% 0 in 0 W/m2
02:48 45.5 °F 43.3 °F 30.3 in WSW 2 mph 3 mph 92% 0 in 0 W/m2
02:53 45.3 °F 43.3 °F 30.3 in West 0.9 mph 3 mph 93% 0 in 0 W/m2
02:58 45.3 °F 43.3 °F 30.3 in NW 2.9 mph 3 mph 93% 0 in 0 W/m2
03:03 45.3 °F 43.3 °F 30.3 in WSW 2.9 mph 3 mph 93% 0 in 0 W/m2
03:08 45.3 °F 43.3 °F 30.3 in West 2 mph 3 mph 93% 0 in 0 W/m2
03:13 45.3 °F 43.3 °F 30.3 in WSW 2 mph 5 mph 93% 0 in 0 W/m2
03:18 45.3 °F 43.3 °F 30.3 in West 2 mph 3 mph 93% 0 in 0 W/m2
03:23 45.3 °F 43.3 °F 30.3 in SW 0.9 mph 4 mph 93% 0 in 0 W/m2
03:28 45.3 °F 43.3 °F 30.3 in West 0.9 mph 3 mph 93% 0 in 0 W/m2
03:33 45.3 °F 43.3 °F 30.3 in West 0.9 mph 4 mph 93% 0 in 0 W/m2
03:38 45.1 °F 43.2 °F 30.3 in West 2.9 mph 3 mph 93% 0 in 0 W/m2
03:43 45.1 °F 43.2 °F 30.3 in West 4 mph 5 mph 93% 0 in 0 W/m2
03:48 45 °F 42.8 °F 30.3 in West 2.9 mph 4 mph 92% 0 in 0 W/m2
03:53 44.8 °F 42.1 °F 30.3 in West 0.9 mph 9 mph 90% 0 in 0 W/m2
03:58 44.6 °F 41.9 °F 30.3 in West 2 mph 2 mph 90% 0.01 in 0 W/m2
04:03 44.2 °F 41 °F 30.3 in WSW 2 mph 6 mph 88% 0.01 in 0 W/m2
04:08 44.2 °F 41 °F 30.3 in SSW 4 mph 4 mph 88% 0.01 in 0 W/m2
04:13 44.1 °F 40.8 °F 30.2 in WNW 2.9 mph 3 mph 88% 0.01 in 0 W/m2
04:18 43.9 °F 40.6 °F 30.2 in West 2.9 mph 4 mph 88% 0.01 in 0 W/m2
04:24 43.7 °F 40.5 °F 30.3 in West 0.9 mph 2 mph 88% 0.01 in 0 W/m2
04:29 43.7 °F 40.5 °F 30.3 in West 2 mph 4 mph 88% 0.01 in 0 W/m2
04:34 43.7 °F 40.5 °F 30.3 in WSW 0.9 mph 2 mph 88% 0.01 in 0 W/m2
04:39 43.7 °F 40.5 °F 30.3 in WSW 0.9 mph 3 mph 88% 0.01 in 0 W/m2
04:44 43.7 °F 40.6 °F 30.3 in WSW 0.9 mph 3 mph 89% 0.01 in 0 W/m2
04:49 43.7 °F 40.6 °F 30.3 in Calm   2 mph 89% 0.01 in 0 W/m2
04:54 43.5 °F 40.8 °F 30.3 in Calm   3 mph 90% 0.01 in 0 W/m2
04:59 43.5 °F 40.8 °F 30.3 in SW 0.9 mph 1 mph 90% 0 in 0 W/m2
05:04 43.3 °F 40.8 °F 30.3 in Calm   1 mph 91% 0 in 0 W/m2
05:09 43.3 °F 40.8 °F 30.3 in SW 0.9 mph 1 mph 91% 0 in 0 W/m2
05:14 43.2 °F 40.6 °F 30.3 in Calm     91% 0 in 0 W/m2
05:19 43.2 °F 41 °F 30.3 in Calm   2 mph 92% 0 in 0 W/m2
05:24 43.2 °F 41 °F 30.3 in Calm     92% 0 in 0 W/m2
05:29 43 °F 40.8 °F 30.3 in South 0.9 mph 1 mph 92% 0 in 0 W/m2
05:34 43 °F 41.2 °F 30.3 in Calm     93% 0 in 0 W/m2
05:39 42.8 °F 41 °F 30.2 in Calm   1 mph 93% 0 in 0 W/m2
05:44 42.8 °F 41 °F 30.2 in SW 2 mph 2 mph 93% 0 in 0 W/m2
05:50 42.6 °F 40.8 °F 30.2 in Calm   1 mph 93% 0 in 0 W/m2
05:55 42.6 °F 40.8 °F 30.2 in Calm   1 mph 93% 0 in 0 W/m2
06:00 42.6 °F 41 °F 30.2 in Calm     94% 0 in 0 W/m2
06:05 42.6 °F 41 °F 30.2 in Calm     94% 0.01 in 0 W/m2
06:10 42.6 °F 41 °F 30.2 in East 0.9 mph 2 mph 94% 0.01 in 0 W/m2
06:15 42.4 °F 40.8 °F 30.2 in East 0.9 mph 3 mph 94% 0.01 in 0 W/m2
06:20 42.4 °F 40.8 °F 30.2 in East 2 mph 2 mph 94% 0.02 in 0 W/m2
06:25 42.4 °F 40.8 °F 30.2 in East 0.9 mph 2 mph 94% 0.02 in 0 W/m2
06:30 42.4 °F 41.2 °F 30.2 in Calm     95% 0.02 in 0 W/m2
06:35 42.4 °F 41.2 °F 30.2 in East 2 mph 3 mph 95% 0.02 in 0 W/m2
06:40 42.3 °F 41 °F 30.2 in Calm   2 mph 95% 0.02 in 0 W/m2
06:45 42.3 °F 41 °F 30.2 in ESE 0.9 mph 2 mph 95% 0.02 in 0 W/m2
06:50 42.3 °F 41 °F 30.2 in ESE 0.9 mph 1 mph 95% 0.02 in 0 W/m2
06:55 42.1 °F 40.8 °F 30.2 in ESE 0.9 mph 2 mph 95% 0.02 in 0 W/m2
07:00 42.1 °F 40.8 °F 30.2 in Calm   1 mph 95% 0.02 in 0 W/m2
07:05 42.1 °F 40.8 °F 30.2 in Calm   1 mph 95% 0.02 in 0 W/m2
07:10 41.9 °F 40.6 °F 30.2 in ESE 2.9 mph 3 mph 95% 0.02 in 0 W/m2
07:15 41.9 °F 40.6 °F 30.2 in ESE 2 mph 3 mph 95% 0.03 in 0 W/m2
07:20 41.9 °F 40.6 °F 30.2 in Calm   6 mph 95% 0.02 in 0 W/m2
07:25 41.7 °F 40.6 °F 30.2 in East 2 mph 3 mph 96% 0.02 in 0 W/m2
07:30 41.7 °F 40.5 °F 30.2 in East 2 mph 3 mph 95% 0.03 in 0 W/m2
07:35 41.7 °F 40.6 °F 30.2 in SE 2 mph 3 mph 96% 0.03 in 0 W/m2
07:40 41.7 °F 40.6 °F 30.2 in East 2 mph 3 mph 96% 0.03 in 0 W/m2
07:45 41.7 °F 40.6 °F 30.2 in East 0.9 mph 3 mph 96% 0.03 in 0 W/m2
07:50 41.7 °F 40.6 °F 30.2 in East 2 mph 3 mph 96% 0.03 in 5 W/m2
07:55 41.7 °F 40.6 °F 30.2 in ESE 0.9 mph 2 mph 96% 0.03 in 7 W/m2
08:00 41.7 °F 40.6 °F 30.2 in East 2 mph 3 mph 96% 0.03 in 7 W/m2
08:05 41.7 °F 40.6 °F 30.2 in ESE 2 mph 2 mph 96% 0.02 in 7 W/m2
08:10 41.7 °F 40.6 °F 30.2 in East 4 mph 5 mph 96% 0.02 in 9 W/m2
08:15 41.7 °F 40.6 °F 30.2 in ESE 2 mph 3 mph 96% 0.02 in 12 W/m2
08:20 41.7 °F 40.6 °F 30.2 in ENE 0.9 mph 1 mph 96% 0.02 in 19 W/m2
08:26 41.7 °F 40.6 °F 30.2 in East 2 mph 3 mph 96% 0.02 in 19 W/m2
08:31 41.9 °F 40.8 °F 30.2 in ENE 2 mph 3 mph 96% 0.01 in 23 W/m2
08:36 41.9 °F 40.8 °F 30.2 in ESE 2 mph 3 mph 96% 0.01 in 21 W/m2
08:41 42.1 °F 41 °F 30.2 in East 2 mph 4 mph 96% 0.01 in 19 W/m2
08:46 42.1 °F 41 °F 30.2 in ENE 0.9 mph 2 mph 96% 0.01 in 25 W/m2
08:51 42.1 °F 41 °F 30.2 in Calm   3 mph 96% 0.01 in 25 W/m2
08:56 42.3 °F 41.2 °F 30.2 in East 2.9 mph 6 mph 96% 0 in 23 W/m2
09:01 42.3 °F 41.2 °F 30.2 in ESE 2 mph 4 mph 96% 0 in 19 W/m2
09:06 42.3 °F 41.2 °F 30.2 in East 2 mph 7 mph 96% 0 in 26 W/m2
09:11 42.3 °F 41.2 °F 30.2 in East 2 mph 5 mph 96% 0 in 30 W/m2
09:16 42.4 °F 41.7 °F 30.2 in ENE 2 mph 3 mph 97% 0 in 30 W/m2
09:21 42.4 °F 41.4 °F 30.2 in Calm   4 mph 96% 0 in 28 W/m2
09:26 42.6 °F 41.5 °F 30.2 in East 2 mph 3 mph 96% 0.01 in 30 W/m2
09:31 42.6 °F 41.9 °F 30.2 in East 2.9 mph 3 mph 97% 0.01 in 33 W/m2
09:36 42.8 °F 42.1 °F 30.2 in ESE 0.9 mph 2 mph 97% 0.01 in 39 W/m2
09:41 43 °F 42.3 °F 30.2 in Calm   3 mph 97% 0.01 in 46 W/m2
09:46 43 °F 42.3 °F 30.2 in ESE 2 mph 2 mph 97% 0.02 in 42 W/m2
09:51 43 °F 42.3 °F 30.2 in Calm   1 mph 97% 0.02 in 49 W/m2
09:56 43.2 °F 42.4 °F 30.2 in East 0.9 mph 3 mph 97% 0.02 in 49 W/m2
10:01 43.3 °F 42.6 °F 30.1 in Calm   2 mph 97% 0.02 in 44 W/m2
10:06 43.3 °F 42.6 °F 30.1 in ESE 0.9 mph 3 mph 97% 0.02 in 51 W/m2
10:11 43.5 °F 42.8 °F 30.1 in Calm   4 mph 97% 0.02 in 58 W/m2
10:16 43.7 °F 43 °F 30.1 in East 2 mph 3 mph 97% 0.02 in 93 W/m2
10:21 43.9 °F 43.2 °F 30.1 in ESE 4 mph 4 mph 97% 0.02 in 113 W/m2
10:26 44.1 °F 43.3 °F 30.1 in ESE 0.9 mph 4 mph 97% 0.01 in 95 W/m2
10:31 44.2 °F 43.5 °F 30.1 in ESE 0.9 mph 2 mph 97% 0.01 in 79 W/m2
10:36 44.6 °F 43.9 °F 30.1 in ESE 0.9 mph 4 mph 97% 0.01 in 97 W/m2
10:41 45 °F 44.2 °F 30.1 in Calm   3 mph 97% 0.01 in 70 W/m2
10:46 45.1 °F 44.4 °F 30.1 in East 2.9 mph 4 mph 97% 0 in 113 W/m2
10:51 45.3 °F 44.6 °F 30.1 in ESE 2 mph 3 mph 97% 0 in 76 W/m2
10:56 45.7 °F 45 °F 30.1 in Calm   2 mph 97% 0 in 84 W/m2
11:01 46.2 °F 45.5 °F 30.1 in NNW 0.9 mph 3 mph 97% 0 in 79 W/m2
11:06 47.1 °F 46.6 °F 30.1 in NW 4 mph 7 mph 98% 0 in 79 W/m2
11:11 47.8 °F 47.3 °F 30.1 in NW 2.9 mph 3 mph 98% 0 in 91 W/m2
11:16 48.4 °F 47.8 °F 30.1 in NNW 2 mph 5 mph 98% 0 in 86 W/m2
11:21 48.6 °F 48 °F 30.1 in West 8.1 mph 8 mph 98% 0 in 90 W/m2
11:26 48.7 °F 48.2 °F 30.1 in NNW 2.9 mph 7 mph 98% 0 in 88 W/m2
11:31 48.9 °F 48 °F 30.1 in West 4 mph 7 mph 97% 0 in 98 W/m2
11:36 49.1 °F 48.6 °F 30.1 in NNW 2 mph 4 mph 98% 0 in 84 W/m2
11:41 49.3 °F 48.4 °F 30.1 in WSW 4.9 mph 5 mph 97% 0 in 79 W/m2
11:46 49.3 °F 48.4 °F 30.1 in West 2 mph 6 mph 97% 0 in 74 W/m2
11:51 49.5 °F 48.6 °F 30.1 in NE 2 mph 4 mph 97% 0 in 70 W/m2
11:56 49.5 °F 48.6 °F 30.1 in SW 4 mph 9 mph 97% 0 in 60 W/m2
12:02 49.6 °F 48.7 °F 30.1 in WNW 10.1 mph 14 mph 97% 0 in 67 W/m2
12:07 49.6 °F 48.7 °F 30.1 in West 8.1 mph 12 mph 97% 0 in 72 W/m2
12:12 49.6 °F 48.7 °F 30.1 in SSW 0.9 mph 7 mph 97% 0 in 95 W/m2
12:17 49.6 °F 48.7 °F 30.1 in WNW 6.9 mph 10 mph 97% 0 in 104 W/m2
12:22 49.8 °F 48.7 °F 30.1 in NNW 4.9 mph 8 mph 96% 0 in 102 W/m2
12:27 49.8 °F 48.9 °F 30.1 in NW 10.1 mph 10 mph 97% 0 in 91 W/m2
12:32 50 °F 48.9 °F 30.1 in West 2 mph 6 mph 96% 0 in 97 W/m2
12:37 50 °F 48.9 °F 30.1 in WSW 8.9 mph 19 mph 96% 0 in 104 W/m2
12:42 50.2 °F 49.1 °F 30 in SW 2.9 mph 10 mph 96% 0 in 118 W/m2
12:47 50.2 °F 49.1 °F 30 in WNW 0.9 mph 18 mph 96% 0 in 121 W/m2
12:52 50.4 °F 49.3 °F 30 in NW 4 mph 7 mph 96% 0 in 125 W/m2
12:57 50.4 °F 49.3 °F 30 in NW 4 mph 5 mph 96% 0 in 167 W/m2
13:02 50.4 °F 49.3 °F 30 in SSW 6.9 mph 7 mph 96% 0 in 162 W/m2
13:07 50.5 °F 49.1 °F 30 in NW 0.9 mph 4 mph 95% 0 in 146 W/m2
13:12 50.5 °F 49.1 °F 30 in SE 2 mph 9 mph 95% 0 in 118 W/m2
13:17 50.7 °F 49.3 °F 30 in NW 4 mph 7 mph 95% 0 in 116 W/m2
13:22 50.7 °F 49.3 °F 30 in NW 4.9 mph 11 mph 95% 0 in 109 W/m2
13:27 50.9 °F 49.3 °F 30 in NW 0.9 mph 8 mph 94% 0 in 109 W/m2
13:32 50.9 °F 49.3 °F 30 in North 4 mph 11 mph 94% 0 in 107 W/m2
13:37 51.1 °F 49.5 °F 30 in Calm   5 mph 94% 0 in 84 W/m2
13:42 51.1 °F 49.5 °F 30 in NNW 2 mph 9 mph 94% 0 in 86 W/m2
13:47 51.1 °F 49.5 °F 30 in North 4 mph 4 mph 94% 0 in 74 W/m2
13:53 51.3 °F 49.6 °F 30 in WSW 4 mph 8 mph 94% 0 in 72 W/m2
13:58 51.3 °F 49.3 °F 30 in WNW 2 mph 10 mph 93% 0.01 in 60 W/m2
14:03 51.3 °F 49.3 °F 30 in West 8.9 mph 9 mph 93% 0.01 in 58 W/m2
14:08 51.3 °F 49.3 °F 30 in NW 2 mph 6 mph 93% 0.01 in 60 W/m2
14:13 51.4 °F 49.5 °F 30 in NNW 2 mph 4 mph 93% 0.01 in 88 W/m2
14:18 51.4 °F 49.5 °F 30 in NW 4.9 mph 11 mph 93% 0.01 in 90 W/m2
14:23 51.4 °F 49.5 °F 30 in NNW 0.9 mph 3 mph 93% 0.01 in 93 W/m2
14:28 51.6 °F 49.5 °F 30 in West 2.9 mph 11 mph 92% 0.01 in 79 W/m2
14:33 51.6 °F 49.5 °F 30 in Calm   4 mph 92% 0.01 in 67 W/m2
14:38 51.6 °F 49.5 °F 30 in ESE 2.9 mph 10 mph 92% 0.01 in 74 W/m2
14:43 51.6 °F 49.5 °F 30 in WNW 2.9 mph 10 mph 92% 0.01 in 98 W/m2
14:48 51.4 °F 49.3 °F 30 in NW 6.9 mph 11 mph 92% 0.01 in 83 W/m2
14:53 51.4 °F 49.3 °F 30 in WNW 6.9 mph 8 mph 92% 0.01 in 81 W/m2
14:58 51.4 °F 49.3 °F 30 in NW 8.9 mph 11 mph 92% 0 in 88 W/m2
15:03 51.3 °F 49.1 °F 30 in WSW 12.1 mph 17 mph 92% 0 in 81 W/m2
15:08 51.3 °F 48.7 °F 30 in WNW 6.9 mph 9 mph 91% 0 in 51 W/m2
15:13 51.3 °F 48.7 °F 30 in Calm   12 mph 91% 0 in 105 W/m2
15:18 51.3 °F 48.4 °F 30 in North 2 mph 13 mph 90% 0 in 70 W/m2
15:23 51.3 °F 48.4 °F 29.9 in NW 8.1 mph 9 mph 90% 0 in 90 W/m2
15:28 51.3 °F 48.4 °F 29.9 in NW 2.9 mph 9 mph 90% 0 in 74 W/m2
15:33 51.3 °F 48.4 °F 29.9 in WNW 6.9 mph 8 mph 90% 0 in 88 W/m2
15:38 51.3 °F 48.4 °F 29.9 in WNW 6.9 mph 9 mph 90% 0 in 70 W/m2
15:43 51.3 °F 48.4 °F 29.9 in WSW 8.1 mph 12 mph 90% 0 in 67 W/m2
15:48 51.3 °F 48.2 °F 29.9 in WNW 4.9 mph 10 mph 89% 0 in 63 W/m2
15:53 51.4 °F 48.4 °F 29.9 in WSW 2.9 mph 8 mph 89% 0 in 49 W/m2
15:58 51.4 °F 48.4 °F 29.9 in West 8.1 mph 14 mph 89% 0 in 49 W/m2
16:03 51.4 °F 48 °F 29.9 in NW 2.9 mph 5 mph 88% 0 in 40 W/m2
16:08 51.4 °F 48 °F 29.9 in West 6 mph 14 mph 88% 0 in 44 W/m2
16:13 51.4 °F 48 °F 29.9 in West 2.9 mph 8 mph 88% 0 in 37 W/m2
16:18 51.4 °F 48 °F 29.9 in WNW 2.9 mph 9 mph 88% 0 in 33 W/m2
16:23 51.4 °F 48 °F 29.9 in West 6 mph 9 mph 88% 0 in 35 W/m2
16:28 51.4 °F 48 °F 29.9 in WSW 4 mph 8 mph 88% 0 in 37 W/m2
16:33 51.4 °F 47.7 °F 29.9 in North 4 mph 10 mph 87% 0 in 44 W/m2
16:38 51.4 °F 47.7 °F 29.9 in West 0.9 mph 4 mph 87% 0 in 33 W/m2
16:43 51.4 °F 47.7 °F 29.9 in NNW 4.9 mph 14 mph 87% 0 in 37 W/m2
16:48 51.4 °F 47.7 °F 29.9 in West 2 mph 7 mph 87% 0 in 44 W/m2
16:53 51.6 °F 47.5 °F 29.9 in WNW 2 mph 14 mph 86% 0 in 40 W/m2
16:58 51.6 °F 47.5 °F 29.9 in North 2 mph 4 mph 86% 0 in 40 W/m2
17:03 51.6 °F 47.5 °F 29.9 in West 2.9 mph 10 mph 86% 0 in 40 W/m2
17:08 51.6 °F 47.5 °F 29.9 in NNW 6 mph 8 mph 86% 0 in 35 W/m2
17:13 51.8 °F 47.7 °F 29.9 in NNE 2 mph 6 mph 86% 0 in 28 W/m2
17:18 52 °F 47.7 °F 29.9 in West 4 mph 7 mph 85% 0 in 26 W/m2
17:23 52 °F 47.7 °F 29.9 in NW 2.9 mph 13 mph 85% 0 in 16 W/m2
17:28 52 °F 47.7 °F 29.9 in West 4 mph 9 mph 85% 0 in 9 W/m2
17:33 52 °F 47.7 °F 29.9 in West 2.9 mph 4 mph 85% 0 in 7 W/m2
17:38 52 °F 47.7 °F 29.9 in NW 2 mph 3 mph 85% 0 in 7 W/m2
17:43 52 °F 47.7 °F 29.9 in Calm   3 mph 85% 0 in 5 W/m2
17:48 51.8 °F 47.7 °F 29.9 in West 6.9 mph 7 mph 86% 0 in 0 W/m2
17:53 51.8 °F 47.7 °F 29.9 in WNW 2 mph 9 mph 86% 0 in 0 W/m2
17:58 51.6 °F 47.5 °F 29.9 in NNW 2 mph 4 mph 86% 0 in 0 W/m2
18:03 51.6 °F 47.5 °F 29.9 in WNW 2 mph 2 mph 86% 0 in 0 W/m2
18:08 51.6 °F 47.3 °F 29.9 in West 8.9 mph 12 mph 85% 0 in 0 W/m2
18:13 51.6 °F 46.9 °F 29.9 in NW 2.9 mph 13 mph 84% 0 in 0 W/m2
18:18 51.4 °F 46.8 °F 29.9 in WNW 2 mph 8 mph 84% 0 in 0 W/m2
18:23 51.4 °F 46.4 °F 29.9 in West 8.9 mph 11 mph 83% 0 in 0 W/m2
18:28 51.4 °F 46.2 °F 29.9 in WNW 6 mph 11 mph 82% 0 in 0 W/m2
18:33 51.4 °F 46.2 °F 29.9 in West 6.9 mph 18 mph 82% 0 in 0 W/m2
18:38 51.3 °F 45.7 °F 29.9 in WSW 6 mph 13 mph 81% 0 in 0 W/m2
18:43 51.3 °F 45.7 °F 29.9 in North 4.9 mph 19 mph 81% 0 in 0 W/m2
18:48 51.3 °F 45.7 °F 29.9 in West 8.9 mph 12 mph 81% 0 in 0 W/m2
18:53 51.1 °F 45.5 °F 29.9 in NW 8.1 mph 19 mph 81% 0 in 0 W/m2
18:58 51.1 °F 45.5 °F 29.9 in WSW 4.9 mph 14 mph 81% 0 in 0 W/m2
19:03 50.9 °F 45.3 °F 29.9 in WNW 2.9 mph 15 mph 81% 0 in 0 W/m2
19:08 50.9 °F 45.3 °F 29.9 in West 4 mph 20 mph 81% 0 in 0 W/m2
19:13 50.7 °F 45.1 °F 29.9 in WSW 8.1 mph 11 mph 81% 0 in 0 W/m2
19:18 50.7 °F 45.1 °F 29.9 in NW 4 mph 16 mph 81% 0 in 0 W/m2
19:23 50.7 °F 45.1 °F 29.9 in NW 4 mph 10 mph 81% 0 in 0 W/m2
19:28 50.7 °F 45.1 °F 29.9 in NW 4 mph 16 mph 81% 0 in 0 W/m2
19:33 50.7 °F 45.1 °F 29.9 in WSW 8.1 mph 14 mph 81% 0 in 0 W/m2
19:38 50.7 °F 45.1 °F 29.9 in WNW 8.9 mph 13 mph 81% 0 in 0 W/m2
19:43 50.7 °F 45.1 °F 29.9 in WNW 4.9 mph 10 mph 81% 0 in 0 W/m2
19:48 50.7 °F 45.1 °F 29.9 in WNW 2.9 mph 5 mph 81% 0 in 0 W/m2
19:53 50.9 °F 45.3 °F 29.9 in NNW 4.9 mph 10 mph 81% 0 in 0 W/m2
19:58 50.7 °F 45.1 °F 29.9 in West 4 mph 7 mph 81% 0 in 0 W/m2
20:03 50.7 °F 45.5 °F 29.9 in West 8.1 mph 11 mph 82% 0 in 0 W/m2
20:08 50.7 °F 45.5 °F 29.9 in West 2.9 mph 8 mph 82% 0 in 0 W/m2
20:13 50.7 °F 45.5 °F 29.9 in WSW 2 mph 8 mph 82% 0 in 0 W/m2
20:18 50.7 °F 45.5 °F 29.9 in WSW 6.9 mph 13 mph 82% 0 in 0 W/m2
20:23 50.7 °F 45.5 °F 29.9 in NW 4 mph 10 mph 82% 0 in 0 W/m2
20:28 50.7 °F 45.5 °F 29.9 in North 2.9 mph 13 mph 82% 0 in 0 W/m2
20:33 50.7 °F 45.5 °F 29.9 in WNW 2.9 mph 8 mph 82% 0 in 0 W/m2
20:38 50.7 °F 45.5 °F 29.9 in South 2.9 mph 11 mph 82% 0 in 0 W/m2
20:43 50.7 °F 45.5 °F 29.9 in NW 4 mph 4 mph 82% 0 in 0 W/m2
20:48 50.7 °F 45.5 °F 29.9 in NE 2 mph 3 mph 82% 0 in 0 W/m2
20:53 50.7 °F 45.5 °F 29.9 in ENE 0.9 mph 7 mph 82% 0 in 0 W/m2
20:58 50.5 °F 45.3 °F 29.9 in WSW 0.9 mph 9 mph 82% 0 in 0 W/m2
21:03 50.5 °F 45.5 °F 29.9 in NNE 0.9 mph 3 mph 83% 0 in 0 W/m2
21:08 50.5 °F 45.5 °F 29.9 in West 4 mph 10 mph 83% 0 in 0 W/m2
21:13 50.5 °F 45.5 °F 29.9 in NNW 4 mph 14 mph 83% 0 in 0 W/m2
21:18 50.5 °F 45.3 °F 29.9 in WNW 6.9 mph 7 mph 82% 0 in 0 W/m2
21:23 50.5 °F 45.3 °F 29.9 in NW 4 mph 5 mph 82% 0 in 0 W/m2
21:28 50.7 °F 45.7 °F 29.9 in NW 2.9 mph 13 mph 83% 0 in 0 W/m2
21:33 50.5 °F 45.5 °F 29.9 in NNW 2 mph 8 mph 83% 0 in 0 W/m2
21:38 50.5 °F 45.5 °F 29.9 in North 4 mph 7 mph 83% 0 in 0 W/m2
21:43 50.5 °F 45.5 °F 29.9 in NNW 0.9 mph 7 mph 83% 0 in 0 W/m2
21:49 50.5 °F 45.5 °F 29.9 in NW 4.9 mph 8 mph 83% 0 in 0 W/m2
21:54 50.5 °F 45.5 °F 29.8 in WSW 2.9 mph 8 mph 83% 0 in 0 W/m2
21:59 50.5 °F 45.5 °F 29.9 in WNW 4.9 mph 9 mph 83% 0 in 0 W/m2
22:04 50.5 °F 45.5 °F 29.8 in West 4 mph 6 mph 83% 0 in 0 W/m2
22:09 50.5 °F 45.5 °F 29.8 in WNW 2.9 mph 9 mph 83% 0 in 0 W/m2
22:14 50.5 °F 45.5 °F 29.8 in West 4 mph 10 mph 83% 0 in 0 W/m2
22:19 50.5 °F 45.5 °F 29.8 in West 8.1 mph 8 mph 83% 0 in 0 W/m2
22:24 50.5 °F 45.5 °F 29.8 in NW 2 mph 8 mph 83% 0 in 0 W/m2
22:29 50.5 °F 45.5 °F 29.8 in NW 4 mph 9 mph 83% 0 in 0 W/m2
22:34 50.5 °F 45.5 °F 29.8 in SW 4 mph 16 mph 83% 0 in 0 W/m2
22:39 50.5 °F 45.5 °F 29.8 in NW 6.9 mph 9 mph 83% 0 in 0 W/m2
22:44 50.5 °F 45.5 °F 29.8 in WSW 10.1 mph 12 mph 83% 0 in 0 W/m2
22:49 50.5 °F 45.5 °F 29.8 in WSW 0.9 mph 6 mph 83% 0 in 0 W/m2
22:54 50.5 °F 45.5 °F 29.8 in WNW 6 mph 10 mph 83% 0 in 0 W/m2
23:00 50.5 °F 45.5 °F 29.8 in SW 2 mph 13 mph 83% 0 in 0 W/m2
23:05 50.4 °F 45.3 °F 29.8 in WSW 4 mph 10 mph 83% 0 in 0 W/m2
23:10 50.4 °F 45.3 °F 29.8 in WSW 8.1 mph 22 mph 83% 0 in 0 W/m2
23:15 50.2 °F 45.5 °F 29.8 in NNW 2.9 mph 13 mph 84% 0 in 0 W/m2
23:20 50.2 °F 45.5 °F 29.8 in NW 2.9 mph 7 mph 84% 0 in 0 W/m2
23:25 49.8 °F 45.5 °F 29.8 in WNW 4.9 mph 12 mph 85% 0 in 0 W/m2
23:30 49.6 °F 45.3 °F 29.8 in West 10.1 mph 15 mph 85% 0 in 0 W/m2
23:35 49.6 °F 45.7 °F 29.8 in WSW 4 mph 12 mph 86% 0 in 0 W/m2
23:40 49.5 °F 45.5 °F 29.8 in NNW 2.9 mph 8 mph 86% 0 in 0 W/m2
23:45 49.5 °F 45.5 °F 29.8 in West 4 mph 15 mph 86% 0 in 0 W/m2
23:50 49.3 °F 45.5 °F 29.8 in NNW 4 mph 7 mph 87% 0 in 0 W/m2
23:55 49.1 °F 45.3 °F 29.8 in Calm   15 mph 87% 0 in 0 W/m2
Juneau County Weather
Compliments of Weather Underground - 4 mb